Location: Riverside Cemetery
(38.3047°N, 99.7773°W)
Time: 07:44:17
(UTC+00:00)

CZ-4B R/B - Pass Details

Date: 19 September 2020
Orbit: 391 x 461 km, 97.6° (Epoch: 22 October)

Event Time Altitude Azimuth Distance (km) Brightness Sun altitude
Rises 10:52:39 0° 152° (SSE) 2,298 5.1 -18.6°
Reaches altitude 10° 10:54:39 10° 144° (SE) 1,454 4.2 -18.2°
Maximum altitude 10:57:34 39° 74° (ENE) 635 2.7 -17.7°
Drops below altitude 10° 11:00:34 10° 4° (N) 1,499 4.3 -17.1°
Sets 11:02:40 0° 356° (N) 2,381 5.2 -16.7°
